Orbital Elements at Epoch 2459200.5 (2020-Dec-17.0) TDB
Reference: JPL 15 (heliocentric ecliptic J2000)
Element | Value | Uncertainty (1-sigma) | Units |
e | .2376021752313241 | 2.789e-07 | |
a | 1.020943897731401 | 2.8453e-08 | au |
q | .7783654068412735 | 2.728e-07 | au |
i | 15.38559604758484 | 1.9695e-05 | deg |
node | 157.880877648392 | 1.1251e-05 | deg |
peri | 263.201113665014 | 2.2002e-05 | deg |
M | 339.3461179642953 | 3.1802e-05 | deg |
tp | 2459222.117249487053 (2021-Jan-07.61724949) | 3.4133e-05 | TDB |
period | 376.791626963203 1.03 | 1.5752e-05 4.313e-08 | d yr |
n | .9554352438812477 | 3.9941e-08 | deg/d |
Q | 1.263522388621528 | 3.5214e-08 | au |
|
| | Orbit Determination Parameters
Additional Information
|